星链-11716 (STARLINK-11716)
导读
STARLINK-11716是美国于2025年5月24日发射的星链卫星,隶属于SpaceX打造的Starlink卫星互联网星座系统。这类卫星主要承担为全球范围提供低延迟、高速率宽带互联网接入服务的任务,补充完善星链星座的全球覆盖能力,推进星链项目的组网部署进程。
Basic Information
目录编号:
64133
目录名称:
STARLINK-11716
国际标识:
2025-111L
轨道中心:
EARTH
卫星名称:
星链-11716
卫星全名:
星链-11716 (STARLINK-11716)
卫星状态:
在轨 (已飞行469 天)
发射日期:
2025-05-24 UTC
国别 :
美国
(US)
星等 :
--
Orbit Information
| 数据来源 | 国际轨道数据 |
| 星历时间: | 2026-09-04T23:49:03+0800 18小时前 查看轨道信息 |
| 半长轴: | 6734.626km |
| 偏心率: | 0.0001284 |
| 轨道倾角: | 43.000° |
| 近地点辐角 | 284.976° |
| 升交点赤经 | 335.321° |
| 平近点角 | 75.096° |
| 近地点: | 355.624km |
| 远地点: | 357.354km |
| 周期: | 91.671分钟 |
| 每日圈数: | 15.708423 |
Detailed Information
固有亮度:
5
最大亮度:
2.5
卫星平台:
Starlink V1.0
覆盖范围:
全球
运营商:
太空探索技术公司
运营商所在国:
美国
制造商(研发单位):
太空探索技术公司
制造商所在国:
美国
使用方式:
暂无
Satellite Introduction
Starlink 计划是 SpaceX 推出的全球卫星互联网项目,通过发射低轨道卫星,为全球尤其是偏远地区提供高速、低延迟的互联网服务。自 2019 年起,Starlink 已部署数千颗卫星,旨在缩小全球数字鸿沟,推动互联网普及。该项目还为军事、航空等行业提供通信支持,带来广泛经济效益。
2D Orbit Map
3D Orbit Map
Orbit Altitude Analysis Chart
Orbit Inclination Analysis Chart
Orbit Comprehensive Analysis Chart
View Comprehensive ChartConjunction Data List
| Event ID | Objects | TCA | Miss Dist (km) | Collision Risk Probability | Collision Risk Index (CRI) | Action |
|---|---|---|---|---|---|---|
| CDM_260830-075906-319006-413321 |
STARLINK-11637
(63190)
STARLINK-11716
(64133) | 2026-08-30T 07:59:01+0000 |
0.789 km
远距离 | 1.223556E-5 中风险 | 0.57 | |
| CDM_260830-071306-319006-413321 |
STARLINK-11637
(63190)
STARLINK-11716
(64133) | 2026-08-30T 07:13:15+0000 |
2.850 km
极远距离 | 4.079244E-7 极低风险 | 0.27 |

